DW3588 Weather Reports


Display with metric or nautical units.
time (UTC)temp
F
wind
direction
speed
MPH
gust
MPH
rain 1hr
in
rain 24hr
in
rain mn
in
humidity
%
barometer
mb
20200402073444 52 306 7.0 10.0 0.00 0.00 0.00 59 1014.0
20200402071927 52 302 4.0 9.0 0.00 0.00 0.00 60 1014.0
20200402070414 52 298 6.0 10.0 0.00 0.00 0.00 59 1013.9
20200402064915 53 286 6.0 9.0 0.00 0.00 0.00 58 1013.9
20200402061827 53 305 4.0 8.0 0.00 0.00 0.00 58 1013.6
20200402060330 53 260 5.0 8.0 0.00 0.00 0.00 57 1013.6
20200402054805 53 246 3.0 7.0 0.00 0.00 0.00 58 1013.5
20200402053255 53 285 2.0 7.0 0.00 0.00 0.00 57 1013.7
20200402051750 54 299 3.0 7.0 0.00 0.00 0.00 56 1013.6
20200402050248 54 263 2.0 7.0 0.00 0.00 0.00 56 1013.5
20200402044756 54 236 3.0 8.0 0.00 0.00 0.00 56 1013.4
20200402043248 54 261 3.0 7.0 0.00 0.00 0.00 57 1013.3
20200402041751 54 259 3.0 6.0 0.00 0.00 0.00 57 1013.1
20200402040227 55 260 3.0 7.0 0.00 0.00 0.00 56 1013.0
20200402034659 55 261 4.0 8.0 0.00 0.00 0.00 56 1012.9
20200402033157 55 244 3.0 6.0 0.00 0.00 0.00 55 1012.8
20200402031658 56 249 2.0 5.0 0.00 0.00 0.00 54 1012.7
20200402030146 58 250 2.0 4.0 0.00 0.00 0.00 50 1012.6
20200402024643 59 286 2.0 5.0 0.00 0.00 0.00 49 1012.5
20200402023144 59 281 3.0 7.0 0.00 0.00 0.00 48 1012.3
20200402021633 61 28 2.0 5.0 0.00 0.00 0.00 44 1012.2
20200402020135 62 355 3.0 5.0 0.00 0.00 0.00 43 1012.1
20200402014624 62 11 3.0 7.0 0.00 0.00 0.00 41 1012.0
20200402013107 63 0 2.0 6.0 0.00 0.00 0.00 40 1012.0
20200402011603 64 5 2.0 8.0 0.00 0.00 0.00 37 1012.0
20200402010057 64 42 3.0 8.0 0.00 0.00 0.00 36 1012.0
20200402004600 64 337 5.0 10.0 0.00 0.00 0.00 37 1012.1
20200402003054 65 327 5.0 11.0 0.00 0.00 0.00 37 1012.1
20200402001555 65 23 4.0 13.0 0.00 0.00 0.00 36 1012.0
20200402000318 65 20 5.0 12.0 0.00 0.00 0.00 31 1012.1
20200401234540 66 355 5.0 12.0 0.00 0.00 0.00 29 1012.1
20200401233015 65 333 6.0 13.0 0.00 0.00 0.00 30 1012.1
20200401231519 66 0 7.0 14.0 0.00 0.00 0.00 29 1012.2
20200401225954 66 5 7.0 13.0 0.00 0.00 0.00 25 1012.2
20200401224455 67 338 7.0 15.0 0.00 0.00 0.00 24 1012.2
20200401222925 67 302 7.0 14.0 0.00 0.00 0.00 25 1012.2
20200401221424 67 13 6.0 16.0 0.00 0.00 0.00 25 1012.2
20200401215925 67 337 5.0 12.0 0.00 0.00 0.00 28 1012.4
20200401214411 65 0 6.0 13.0 0.00 0.00 0.00 39 1012.5
20200401212909 65 50 5.0 12.0 0.00 0.00 0.00 41 1012.7
20200401211409 64 94 5.0 10.0 0.00 0.00 0.00 45 1012.9
20200401205909 65 24 4.0 13.0 0.00 0.00 0.00 44 1013.0
20200401204410 65 44 5.0 10.0 0.00 0.00 0.00 44 1013.2
20200401202908 64 28 4.0 11.0 0.00 0.00 0.00 45 1013.3
20200401201409 63 40 5.0 10.0 0.00 0.00 0.00 46 1013.5
20200401195919 63 10 4.0 11.0 0.00 0.00 0.00 47 1013.5
20200401194346 62 330 4.0 12.0 0.00 0.00 0.00 48 1013.6
20200401192842 62 355 4.0 10.0 0.00 0.00 0.00 48 1013.8
20200401191343 61 350 4.0 10.0 0.00 0.00 0.00 48 1014.0
20200401185842 61 5 6.0 12.0 0.00 0.00 0.00 48 1014.2
20200401184343 60 325 4.0 11.0 0.00 0.00 0.00 47 1014.3
20200401182843 59 342 4.0 11.0 0.00 0.00 0.00 48 1014.4
20200401181335 59 55 5.0 11.0 0.00 0.00 0.00 49 1014.5
20200401175838 58 331 4.0 10.0 0.00 0.00 0.00 47 1014.6
20200401174324 57 355 5.0 13.0 0.00 0.00 0.00 47 1014.6
20200401172822 57 5 5.0 10.0 0.00 0.00 0.00 47 1014.7
20200401171323 57 55 4.0 12.0 0.00 0.00 0.00 48 1014.6
20200401165812 56 326 4.0 13.0 0.00 0.00 0.00 49 1014.5
20200401164251 55 341 5.0 13.0 0.00 0.00 0.00 50 1014.4
20200401162754 55 341 5.0 11.0 0.00 0.00 0.00 53 1014.3
20200401161235 54 355 4.0 10.0 0.00 0.00 0.00 58 1014.2
20200401155737 52 275 6.0 11.0 0.00 0.00 0.00 66 1014.2
20200401154207 51 296 7.0 13.0 0.00 0.00 0.00 68 1014.1
20200401152708 50 317 6.0 12.0 0.00 0.00 0.00 69 1014.1
20200401151213 50 286 6.0 14.0 0.00 0.00 0.00 70 1014.0
20200401145700 49 292 9.0 14.0 0.00 0.00 0.00 71 1014.0
20200401144156 49 299 6.0 11.0 0.00 0.00 0.00 71 1013.8
20200401142645 48 279 7.0 12.0 0.00 0.00 0.00 71 1013.6
20200401141151 48 303 7.0 13.0 0.00 0.00 0.00 70 1013.5
20200401135643 48 295 7.0 13.0 0.00 0.00 0.00 70 1013.4
20200401134128 49 289 8.0 14.0 0.00 0.00 0.00 69 1013.4
20200401132627 49 265 8.0 15.0 0.00 0.00 0.00 66 1013.3
20200401131129 49 276 7.0 12.0 0.00 0.00 0.00 66 1013.1
20200401125611 49 281 5.0 10.0 0.00 0.00 0.00 68 1013.2
20200401124055 50 296 3.0 8.0 0.00 0.00 0.00 65 1013.4
20200401122538 51 287 4.0 13.0 0.00 0.00 0.00 66 1013.3
20200401121020 51 284 7.0 13.0 0.00 0.00 0.00 68 1013.1
20200401115501 50 306 4.0 9.0 0.00 0.00 0.00 74 1013.1
20200401113941 50 334 2.0 6.0 0.00 0.00 0.00 77 1013.3
20200401112416 50 338 1.0 5.0 0.00 0.00 0.00 80 1013.4
20200401110915 50 327 2.0 5.0 0.00 0.00 0.00 81 1013.3
20200401105414 48 243 0.0 0.0 0.00 0.00 0.00 80 1013.3
20200401103909 49 242 0.0 0.0 0.00 0.00 0.00 77 1013.3
20200401102410 50 355 0.0 3.0 0.00 0.00 0.00 78 1013.4
20200401100912 50 281 0.0 3.0 0.00 0.00 0.00 78 1013.5
20200401095407 49 263 1.0 3.0 0.00 0.00 0.00 79 1013.6
20200401093905 49 255 1.0 3.0 0.00 0.00 0.00 80 1013.8
20200401092407 50 257 0.0 2.0 0.00 0.00 0.00 78 1013.9
20200401090900 51 257 0.0 4.0 0.00 0.00 0.00 78 1014.2
20200401085331 52 257 2.0 7.0 0.00 0.00 0.00 77 1014.3
20200401083836 53 284 0.0 4.0 0.00 0.00 0.00 78 1014.4
20200401082315 52 244 0.0 0.0 0.00 0.00 0.00 80 1014.4
20200401080822 51 284 0.0 1.0 0.00 0.00 0.00 81 1014.6
20200401075314 51 0 0.0 2.0 0.00 0.00 0.00 82 1014.5
20200401073811 52 248 0.0 0.0 0.00 0.00 0.00 82 1014.5